N1LTP Weather Reports


time (UTC)temp
C
wind
direction
speed
KPH
gust
KPH
rain 1hr
cm
rain 24hr
cm
rain mn
cm
humidity
%
barometer
mb
20260906211513 18 333 1.6 6.4 0.00 0.10 0.10 77 1013.8
20260906210019 18 331 0.0 4.8 0.00 0.10 0.10 78 1013.7
20260906204512 18 336 0.0 3.2 0.00 0.10 0.10 77 1013.6
20260906203022 18 335 1.6 6.4 0.00 0.10 0.10 78 1013.5
20260906201511 18 62 0.0 3.2 0.00 0.10 0.10 80 1013.6
20260906200010 17 61 0.0 3.2 0.00 0.10 0.10 78 1013.7
20260906194510 17 71 3.2 6.4 0.00 0.10 0.10 79 1013.6
20260906193010 17 326 0.0 4.8 0.00 0.10 0.10 80 1013.8
20260906191510 17 96 0.0 1.6 0.00 0.10 0.10 83 1013.9
20260906190108 17 96 0.0 4.8 0.00 0.10 0.10 83 1013.8
20260906184508 17 76 0.0 3.2 0.00 0.10 0.10 83 1014.1
20260906183009 17 132 0.0 6.4 0.00 0.10 0.10 81 1014.3
20260906181506 17 188 0.0 4.8 0.00 0.10 0.10 83 1014.1
20260906180005 17 285 0.0 1.6 0.00 0.10 0.10 82 1014.0
20260906174510 18 300 0.0 8.0 0.00 0.10 0.10 77 1014.2
20260906173004 18 63 0.0 6.4 0.00 0.10 0.10 73 1014.0
20260906171502 18 342 1.6 11.3 0.00 0.10 0.10 76 1014.1
20260906170100 18 89 1.6 8.0 0.00 0.10 0.10 76 1014.1
20260906164558 17 180 0.0 12.9 0.00 0.10 0.10 77 1014.3
20260906163121 17 280 1.6 9.7 0.00 0.10 0.10 79 1014.5
20260906161556 17 94 3.2 12.9 0.00 0.10 0.10 77 1014.5
20260906160056 17 84 0.0 6.4 0.00 0.10 0.10 80 1014.6
20260906154556 17 109 0.0 4.8 0.00 0.10 0.10 81 1014.7
20260906153056 18 86 3.2 8.0 0.00 0.10 0.10 79 1014.7
20260906151551 17 111 1.6 9.7 0.00 0.10 0.10 81 1014.6
20260906150050 17 261 0.0 8.0 0.00 0.10 0.10 82 1014.7
20260906144548 17 180 0.0 6.4 0.00 0.10 0.10 84 1014.7
20260906143050 16 306 0.0 11.3 0.00 0.10 0.10 86 1014.7
20260906141541 16 193 0.0 3.2 0.00 0.10 0.10 87 1014.6
20260906140049 16 281 0.0 6.4 0.00 0.10 0.10 88 1014.7
20260906134542 16 277 0.0 8.0 0.00 0.10 0.10 88 1014.7
20260906133039 15 289 0.0 6.4 0.00 0.10 0.10 89 1014.6
20260906131538 15 312 0.0 6.4 0.00 0.10 0.10 90 1014.7
20260906130041 15 289 3.2 6.4 0.03 0.10 0.10 90 1014.5
20260906124538 15 311 4.8 12.9 0.03 0.10 0.10 90 1014.5
20260906123034 15 306 0.0 4.8 0.03 0.10 0.10 90 1014.5
20260906121533 15 307 3.2 6.4 0.03 0.10 0.10 90 1014.4
20260906120030 15 312 0.0 4.8 0.00 0.08 0.08 90 1014.2
20260906114530 15 350 0.0 3.2 0.00 0.08 0.08 90 1014.1
20260906113028 15 34 0.0 3.2 0.03 0.08 0.08 90 1014.0
20260906111526 15 110 0.0 0.0 0.05 0.08 0.08 89 1013.8
20260906110023 15 110 0.0 0.0 0.05 0.08 0.08 89 1013.5
20260906104524 15 110 0.0 0.0 0.08 0.08 0.08 89 1013.3
20260906103021 15 110 0.0 0.0 0.05 0.05 0.05 88 1013.3
20260906101519 15 110 0.0 1.6 0.03 0.03 0.03 88 1013.3
20260906100018 15 110 0.0 9.7 0.03 0.03 0.03 87 1013.2
20260906094517 15 58 0.0 4.8 0.00 0.00 0.00 87 1013.2
20260906093027 15 84 0.0 4.8 0.00 0.00 0.00 89 1012.8
20260906091509 16 56 0.0 1.6 0.00 0.00 0.00 90 1012.5
20260906090010 16 56 0.0 1.6 0.00 0.00 0.00 90 1012.3
20260906084513 16 56 0.0 1.6 0.00 0.00 0.00 90 1012.4
20260906083007 16 56 0.0 0.0 0.00 0.00 0.00 90 1012.1
20260906081507 16 56 0.0 1.6 0.00 0.00 0.00 90 1012.0
20260906080007 16 56 0.0 0.0 0.00 0.00 0.00 90 1012.0
20260906074506 15 56 0.0 1.6 0.00 0.00 0.00 90 1011.8
20260906073005 15 56 0.0 3.2 0.00 0.00 0.00 90 1011.8
20260906071504 15 56 0.0 1.6 0.00 0.00 0.00 89 1011.9
20260906070003 15 56 0.0 1.6 0.00 0.00 0.00 89 1012.0
20260906064503 15 56 0.0 0.0 0.00 0.00 0.00 89 1011.9
20260906063002 15 56 0.0 0.0 0.00 0.00 0.00 88 1011.9
20260906061501 15 56 0.0 0.0 0.00 0.00 0.00 88 1012.0
20260906060104 16 56 0.0 0.0 0.00 0.00 0.00 87 1012.0
20260906054558 16 56 0.0 1.6 0.00 0.00 0.00 87 1012.0
20260906053057 16 56 0.0 0.0 0.00 0.00 0.00 87 1012.2
20260906051558 16 56 0.0 0.0 0.00 0.00 0.00 86 1012.3
20260906050055 16 56 0.0 0.0 0.00 0.00 0.00 86 1012.3
20260906044553 16 56 0.0 0.0 0.00 0.00 0.00 85 1012.2
20260906043054 16 56 0.0 0.0 0.00 0.00 0.00 85 1012.1
20260906041551 16 56 0.0 0.0 0.00 0.00 0.00 85 1012.1
20260906040051 16 56 0.0 0.0 0.00 0.00 0.00 85 1012.1
20260906034549 16 56 0.0 0.0 0.00 0.00 0.00 85 1012.0
20260906033049 16 56 0.0 0.0 0.00 0.00 0.00 85 1011.9
20260906031549 16 56 0.0 0.0 0.00 0.00 0.00 84 1011.8
20260906030051 16 56 0.0 0.0 0.00 0.00 0.00 84 1011.9
20260906024548 16 56 0.0 0.0 0.00 0.00 0.00 84 1011.9
20260906023048 17 56 0.0 0.0 0.00 0.00 0.00 83 1011.8
20260906021553 17 56 0.0 0.0 0.00 0.00 0.00 83 1011.9
20260906020045 17 56 0.0 0.0 0.00 0.00 0.00 83 1011.9
20260906014548 17 56 0.0 0.0 0.00 0.00 0.00 83 1011.9
20260906013045 17 56 0.0 0.0 0.00 0.00 0.00 83 1012.0
20260906011551 17 56 0.0 3.2 0.00 0.00 0.00 83 1011.9
20260906010043 17 59 0.0 1.6 0.00 0.00 0.00 83 1011.9
20260906004543 17 59 0.0 0.0 0.00 0.00 0.00 82 1011.7
20260906003040 17 59 0.0 0.0 0.00 0.00 0.00 82 1011.5
20260906001539 17 59 0.0 0.0 0.00 0.00 0.00 81 1011.4
20260906000040 17 59 0.0 0.0 0.00 0.00 0.00 81 1011.1
20260905234536 17 59 0.0 0.0 0.00 0.00 0.00 80 1011.1
20260905233053 18 59 0.0 4.8 0.00 0.00 0.00 80 1011.0
20260905231548 18 59 0.0 1.6 0.00 0.00 0.00 79 1011.1
20260905230034 18 59 0.0 3.2 0.00 0.00 0.00 79 1011.0
20260905224541 18 58 1.6 8.0 0.00 0.00 0.00 79 1011.1
20260905223033 18 76 0.0 9.7 0.00 0.00 0.00 78 1011.0
20260905221537 19 103 1.6 11.3 0.00 0.00 0.00 77 1010.9
20260905220030 19 57 1.6 16.1 0.00 0.00 0.00 77 1010.8
20260905214527 20 69 6.4 14.5 0.00 0.00 0.00 77 1010.4
20260905213033 20 96 4.8 12.9 0.00 0.00 0.00 77 1010.2